Starlink 3669

operational
NORAD ID: 51971 Int'l Des: 2022-025 Owner: SPXS Country: US Constellation: starlink
LEOCIRCULARSTARLINK_TYPE

关于 Starlink 3669

正在加载描述...

实时位置

正在加载3D地球...

即将过境

高度历史

Altitude vs Time

uPlot chart will show altitude changes over time

两行轨道根数

1 51971U 22025R 25259.23842368 .00000675 00000-0 64244-4 0 9995
2 51971 53.0546 90.0199 0001346 89.9365 270.1778 15.06394858194689
Epoch: Sep 16, 2025 • Age: 9 hours

当前状态

高度 550.5 km
速度 7.59 km/s
星下点 -11.46°S, 63.16°E
发射日期 Mar 9, 2022
运行时间 3.5 years
类型 internet

技术详情

分类 Payload
质量 297.00 kg
干质量 275.00 kg
总质量 297.00 kg
长度 0.20 m
直径 2.80 m
跨度 9.00 m
形状 Box + pan
制造商 SPXS
平台类型 Starlink
阶段状态 In Orbit
所有者/国家 SPXS/US

大型星座

Loading constellations...